�������l�o���
Date,Time,MP-1(��Sv/h),MP-2(��Sv/h),MP-3(��Sv/h),MP-4(��Sv/h),MP-5(��Sv/h),MP-6(��Sv/h),MP-7(��Sv/h),MP-8(��Sv/h),����,����(m/s),���J
2017/07/17,00:00,0.983,1.555,1.058,1.884,1.303,0.533,0.966,0.888,���쐼,4.3,�L
2017/07/17,00:10,0.981,1.558,1.059,1.884,1.302,0.532,0.967,0.890,���쐼,5.9,��
2017/07/17,00:20,0.979,1.557,1.056,1.883,1.301,0.531,0.966,0.890,���쐼,7.1,�L
2017/07/17,00:30,0.979,1.555,1.056,1.880,1.302,0.530,0.968,0.889,��,4.2,�L
2017/07/17,00:40,0.979,1.554,1.055,1.881,1.299,0.530,0.967,0.889,���k��,1.5,�L
2017/07/17,00:50,0.977,1.554,1.054,1.881,1.301,0.529,0.965,0.887,��,1.4,�L
2017/07/17,01:00,0.978,1.554,1.053,1.881,1.300,0.531,0.966,0.888,��,2.8,��
2017/07/17,01:10,0.979,1.553,1.052,1.881,1.298,0.531,0.965,0.890,���k��,5.9,��
2017/07/17,01:20,0.978,1.556,1.054,1.881,1.296,0.530,0.965,0.889,���k��,7.4,��
2017/07/17,01:30,0.977,1.550,1.055,1.879,1.299,0.529,0.967,0.889,��,6.5,��
2017/07/17,01:40,0.975,1.555,1.054,1.877,1.297,0.530,0.967,0.892,��,7.0,��
2017/07/17,01:50,0.974,1.555,1.052,1.881,1.298,0.528,0.967,0.889,��,7.3,��
2017/07/17,02:00,0.977,1.554,1.055,1.881,1.301,0.529,0.967,0.890,��,7.0,��
2017/07/17,02:10,0.975,1.553,1.052,1.883,1.299,0.529,0.968,0.891,��,5.5,��
2017/07/17,02:20,0.976,1.553,1.052,1.877,1.297,0.529,0.969,0.890,���k��,4.4,��
2017/07/17,02:30,0.977,1.557,1.053,1.882,1.299,0.529,0.969,0.892,�k��,4.5,��
2017/07/17,02:40,0.978,1.558,1.054,1.881,1.300,0.529,0.968,0.890,���k��,4.8,��
2017/07/17,02:50,0.975,1.556,1.051,1.883,1.300,0.529,0.969,0.891,���k��,7.8,��
2017/07/17,03:00,0.977,1.557,1.056,1.884,1.299,0.529,0.968,0.892,��,7.9,��
2017/07/17,03:10,0.976,1.556,1.053,1.885,1.299,0.530,0.967,0.890,���k��,10.4,��
2017/07/17,03:20,0.978,1.556,1.053,1.884,1.301,0.531,0.969,0.891,���k��,7.1,��
2017/07/17,03:30,0.978,1.555,1.054,1.886,1.299,0.529,0.970,0.892,���k��,6.3,��
2017/07/17,03:40,0.976,1.558,1.054,1.884,1.300,0.529,0.968,0.892,���k��,5.0,��
2017/07/17,03:50,0.976,1.556,1.053,1.884,1.298,0.530,0.970,0.891,���k��,4.6,��
2017/07/17,04:00,0.975,1.557,1.053,1.885,1.301,0.529,0.968,0.891,��,4.4,��
2017/07/17,04:10,0.978,1.555,1.053,1.885,1.298,0.530,0.971,0.892,���k��,3.9,��
2017/07/17,04:20,0.977,1.559,1.055,1.888,1.298,0.529,0.968,0.892,��,3.2,��
2017/07/17,04:30,0.978,1.557,1.054,1.883,1.299,0.529,0.972,0.893,��,4.0,��
2017/07/17,04:40,0.977,1.556,1.053,1.886,1.299,0.531,0.970,0.891,���k��,5.8,��
2017/07/17,04:50,0.979,1.553,1.055,1.884,1.302,0.530,0.970,0.890,���k��,4.2,��
2017/07/17,05:00,0.977,1.558,1.055,1.886,1.300,0.531,0.971,0.891,���k��,6.0,��
2017/07/17,05:10,0.979,1.560,1.056,1.886,1.299,0.531,0.971,0.893,���k��,4.9,�L
2017/07/17,05:20,0.978,1.562,1.053,1.884,1.297,0.531,0.970,0.891,�k��,2.8,�L
2017/07/17,05:30,0.978,1.555,1.056,1.887,1.299,0.529,0.972,0.891,���k��,4.0,��
2017/07/17,05:40,0.978,1.560,1.056,1.885,1.301,0.530,0.969,0.891,�k��,3.8,��
2017/07/17,05:50,0.977,1.556,1.056,1.886,1.301,0.529,0.970,0.890,�k��,3.1,��
2017/07/17,06:00,0.977,1.558,1.056,1.885,1.300,0.529,0.970,0.891,�k��,3.4,��
2017/07/17,06:10,0.975,1.556,1.053,1.885,1.300,0.530,0.968,0.892,���k��,3.5,��
2017/07/17,06:20,0.978,1.559,1.052,1.886,1.298,0.530,0.972,0.891,���k��,2.5,��
2017/07/17,06:30,0.977,1.560,1.052,1.886,1.298,0.531,0.970,0.892,��,2.3,��
2017/07/17,06:40,0.978,1.560,1.055,1.885,1.302,0.531,0.971,0.891,��,3.4,��
2017/07/17,06:50,0.981,1.560,1.053,1.888,1.299,0.529,0.970,0.890,��,3.7,��
2017/07/17,07:00,0.979,1.561,1.054,1.884,1.302,0.529,0.970,0.891,���k��,2.9,��
2017/07/17,07:10,0.979,1.561,1.055,1.886,1.302,0.530,0.969,0.891,�k��,0.9,��
2017/07/17,07:20,0.981,1.563,1.053,1.888,1.301,0.530,0.969,0.892,�k�k��,1.4,��
2017/07/17,07:30,0.977,1.562,1.056,1.887,1.302,0.530,0.971,0.893,�k,1.5,��
2017/07/17,07:40,0.979,1.562,1.053,1.886,1.300,0.530,0.971,0.890,�k�k��,2.2,��
2017/07/17,07:50,0.982,1.565,1.055,1.887,1.303,0.529,0.970,0.892,�k�k��,1.1,��
2017/07/17,08:00,0.979,1.565,1.054,1.885,1.303,0.531,0.970,0.891,��,0.9,��
2017/07/17,08:10,0.982,1.563,1.055,1.886,1.305,0.529,0.970,0.893,-,CALM,��
2017/07/17,08:20,0.981,1.563,1.058,1.889,1.307,0.531,0.971,0.891,�k��,1.2,��
2017/07/17,08:30,0.984,1.565,1.057,1.889,1.306,0.530,0.969,0.892,��,0.9,��
2017/07/17,08:40,0.985,1.566,1.057,1.889,1.306,0.531,0.970,0.890,��,2.0,��
2017/07/17,08:50,0.984,1.565,1.058,1.889,1.304,0.530,0.972,0.891,��쐼,1.5,��
2017/07/17,09:00,0.985,1.568,1.056,1.887,1.307,0.531,0.973,0.890,��,0.8,��
2017/07/17,09:10,0.985,1.567,1.057,1.889,1.304,0.531,0.972,0.888,���쓌,1.9,��
2017/07/17,09:20,0.986,1.567,1.057,1.890,1.306,0.530,0.972,0.889,��쓌,2.6,��
2017/07/17,09:30,0.985,1.570,1.055,1.887,1.307,0.530,0.974,0.889,�쓌,2.8,��
2017/07/17,09:40,0.988,1.569,1.059,1.892,1.309,0.530,0.973,0.889,��쓌,3.2,��
2017/07/17,09:50,0.985,1.574,1.058,1.893,1.313,0.530,0.970,0.890,��쓌,3.1,��
2017/07/17,10:00,0.989,1.570,1.059,1.893,1.315,0.530,0.973,0.891,��쓌,3.5,��
2017/07/17,10:10,0.988,1.576,1.059,1.894,1.311,0.532,0.971,0.892,��쓌,3.9,��
2017/07/17,10:20,0.990,1.575,1.061,1.891,1.315,0.533,0.972,0.891,��쓌,4.3,��
2017/07/17,10:30,0.992,1.577,1.060,1.892,1.317,0.531,0.973,0.891,��쓌,4.6,��
2017/07/17,10:40,0.992,1.576,1.062,1.894,1.317,0.532,0.971,0.891,��쓌,4.3,��
2017/07/17,10:50,0.991,1.580,1.064,1.894,1.318,0.531,0.975,0.893,��쓌,3.4,��
2017/07/17,11:00,0.994,1.579,1.063,1.895,1.317,0.531,0.972,0.893,��쓌,3.1,��
2017/07/17,11:10,0.994,1.582,1.065,1.898,1.320,0.531,0.972,0.892,��쓌,2.3,��
2017/07/17,11:20,0.994,1.582,1.065,1.898,1.323,0.532,0.974,0.892,��쓌,3.0,��
2017/07/17,11:30,0.992,1.581,1.063,1.895,1.321,0.530,0.973,0.894,��쓌,4.4,��
2017/07/17,11:40,0.994,1.582,1.062,1.894,1.324,0.530,0.974,0.892,��쓌,3.8,��
2017/07/17,11:50,0.994,1.584,1.064,1.897,1.324,0.530,0.974,0.892,��쓌,4.9,��
2017/07/17,12:00,0.995,1.581,1.063,1.896,1.324,0.532,0.975,0.893,��쓌,2.9,��
2017/07/17,12:10,0.996,1.582,1.065,1.895,1.322,0.531,0.973,0.894,���쓌,2.8,��
2017/07/17,12:20,0.998,1.586,1.067,1.895,1.326,0.533,0.973,0.891,�쓌,2.2,��
2017/07/17,12:30,0.995,1.583,1.067,1.895,1.326,0.531,0.975,0.892,��,1.5,��
2017/07/17,12:40,0.997,1.585,1.064,1.893,1.326,0.530,0.976,0.893,��,1.5,��
2017/07/17,12:50,0.997,1.585,1.066,1.901,1.324,0.530,0.977,0.895,�쐼,2.3,��
2017/07/17,13:00,0.996,1.585,1.067,1.900,1.327,0.532,0.977,0.896,�쐼,0.9,��
2017/07/17,13:10,0.998,1.588,1.066,1.901,1.330,0.531,0.977,0.895,���k��,0.9,��
2017/07/17,13:20,0.999,1.588,1.066,1.899,1.329,0.533,0.976,0.893,�쓌,0.9,��
2017/07/17,13:30,1.002,1.588,1.068,1.902,1.329,0.532,0.977,0.894,-,CALM,��
2017/07/17,13:40,0.999,1.589,1.067,1.900,1.329,0.534,0.975,0.895,�k��,0.8,��
2017/07/17,13:50,1.000,1.589,1.070,1.900,1.332,0.535,0.976,0.892,-,CALM,��
2017/07/17,14:00,1.001,1.588,1.072,1.903,1.334,0.534,0.976,0.893,��,1.7,��
2017/07/17,14:10,1.000,1.593,1.075,1.906,1.334,0.535,0.977,0.893,��,2.0,��
2017/07/17,14:20,1.003,1.593,1.074,1.907,1.332,0.535,0.978,0.893,��,5.1,��
2017/07/17,14:30,1.000,1.594,1.073,1.907,1.333,0.535,0.978,0.895,��,5.1,��
2017/07/17,14:40,1.002,1.595,1.075,1.907,1.335,0.536,0.980,0.893,���k��,3.1,��
2017/07/17,14:50,1.002,1.597,1.074,1.906,1.335,0.536,0.978,0.895,�k,1.1,��
2017/07/17,15:00,1.002,1.597,1.074,1.903,1.338,0.535,0.975,0.895,���k��,1.2,��
2017/07/17,15:10,1.004,1.595,1.075,1.909,1.338,0.536,0.979,0.897,�k��,1.2,��
2017/07/17,15:20,1.004,1.593,1.076,1.908,1.338,0.534,0.979,0.897,���k��,2.0,��
2017/07/17,15:30,1.004,1.597,1.073,1.905,1.334,0.536,0.978,0.897,�쓌,0.9,��
2017/07/17,15:40,1.004,1.597,1.073,1.907,1.335,0.534,0.979,0.897,�쓌,0.8,��
2017/07/17,15:50,1.003,1.597,1.074,1.909,1.336,0.533,0.977,0.896,-,CALM,��
2017/07/17,16:00,1.006,1.594,1.072,1.910,1.334,0.533,0.978,0.897,���k��,0.6,��
2017/07/17,16:10,1.005,1.594,1.074,1.913,1.333,0.533,0.977,0.898,-,CALM,��
2017/07/17,16:20,1.005,1.596,1.075,1.910,1.334,0.533,0.978,0.897,���k��,1.2,��
2017/07/17,16:30,1.006,1.597,1.076,1.909,1.335,0.532,0.978,0.896,-,CALM,��
2017/07/17,16:40,1.003,1.598,1.073,1.909,1.335,0.533,0.978,0.895,�k,0.9,��
2017/07/17,16:50,1.006,1.597,1.072,1.912,1.338,0.533,0.978,0.897,�k�k��,1.1,��
2017/07/17,17:00,1.006,1.598,1.073,1.912,1.332,0.533,0.978,0.895,-,CALM,��
2017/07/17,17:10,1.004,1.594,1.074,1.915,1.334,0.534,0.978,0.894,�k��,0.9,��
2017/07/17,17:20,1.006,1.596,1.072,1.911,1.336,0.534,0.977,0.896,���쓌,0.6,��
2017/07/17,17:30,1.003,1.595,1.073,1.913,1.335,0.534,0.978,0.894,�k��,1.4,��
2017/07/17,17:40,1.003,1.597,1.071,1.910,1.334,0.533,0.976,0.895,-,CALM,��
2017/07/17,17:50,1.006,1.595,1.071,1.910,1.336,0.533,0.977,0.894,���k��,1.2,��
2017/07/17,18:00,1.003,1.596,1.074,1.909,1.337,0.533,0.977,0.895,�k��,0.8,��
2017/07/17,18:10,1.004,1.594,1.071,1.911,1.337,0.533,0.976,0.895,���k��,1.5,��
2017/07/17,18:20,1.005,1.598,1.070,1.906,1.337,0.533,0.974,0.894,���k��,0.9,��
2017/07/17,18:30,1.006,1.597,1.074,1.910,1.334,0.533,0.976,0.896,-,CALM,��
2017/07/17,18:40,1.005,1.596,1.072,1.906,1.333,0.532,0.976,0.895,���k��,0.6,��
2017/07/17,18:50,1.006,1.595,1.072,1.908,1.332,0.533,0.976,0.896,���쓌,1.1,��
2017/07/17,19:00,1.005,1.596,1.071,1.905,1.333,0.534,0.977,0.895,-,CALM,��
2017/07/17,19:10,1.004,1.596,1.072,1.910,1.334,0.531,0.975,0.895,���k��,1.2,��
2017/07/17,19:20,1.005,1.596,1.073,1.907,1.334,0.533,0.976,0.895,�k��,1.2,��
2017/07/17,19:30,1.003,1.596,1.073,1.908,1.333,0.533,0.977,0.896,�k,0.9,��
2017/07/17,19:40,1.002,1.596,1.073,1.912,1.333,0.532,0.975,0.894,�k��,1.2,��
2017/07/17,19:50,1.005,1.599,1.072,1.909,1.334,0.534,0.975,0.893,�k�k��,1.2,��
2017/07/17,20:00,1.004,1.598,1.073,1.910,1.335,0.534,0.976,0.894,�k,0.9,��
2017/07/17,20:10,1.006,1.599,1.072,1.911,1.335,0.532,0.975,0.894,�k�k��,1.2,��
2017/07/17,20:20,1.006,1.598,1.072,1.909,1.334,0.533,0.975,0.893,�k�k��,1.1,��
2017/07/17,20:30,1.003,1.596,1.074,1.910,1.335,0.535,0.975,0.896,�k��,0.9,��
2017/07/17,20:40,1.003,1.597,1.070,1.909,1.336,0.532,0.976,0.896,�k�k��,1.2,��
2017/07/17,20:50,1.005,1.595,1.074,1.907,1.335,0.533,0.975,0.895,�k,1.7,��
2017/07/17,21:00,1.004,1.595,1.073,1.908,1.334,0.533,0.975,0.894,�k�k��,2.0,��
2017/07/17,21:10,1.004,1.597,1.073,1.909,1.333,0.533,0.975,0.897,�k,2.3,��
2017/07/17,21:20,1.005,1.600,1.072,1.911,1.336,0.533,0.976,0.895,�k,2.2,��
2017/07/17,21:30,1.005,1.597,1.074,1.910,1.334,0.532,0.974,0.895,�k�k��,1.7,��
2017/07/17,21:40,1.005,1.596,1.072,1.908,1.334,0.532,0.977,0.895,�k��,1.2,��
2017/07/17,21:50,1.003,1.595,1.072,1.911,1.332,0.533,0.974,0.895,�k�k��,0.6,��
2017/07/17,22:00,1.004,1.598,1.073,1.909,1.333,0.533,0.976,0.895,�k,0.6,��
2017/07/17,22:10,1.003,1.599,1.072,1.912,1.334,0.533,0.977,0.895,�k�k��,1.2,��
2017/07/17,22:20,1.003,1.598,1.075,1.912,1.336,0.533,0.976,0.896,�k,1.9,��
2017/07/17,22:30,1.005,1.597,1.071,1.912,1.335,0.533,0.979,0.896,�k,1.7,��
2017/07/17,22:40,1.004,1.597,1.072,1.910,1.334,0.533,0.976,0.897,�k,2.6,��
2017/07/17,22:50,1.004,1.597,1.073,1.910,1.334,0.533,0.977,0.897,�k,3.1,��
2017/07/17,23:00,1.005,1.596,1.072,1.910,1.336,0.533,0.974,0.895,�k�k��,1.7,��
2017/07/17,23:10,1.006,1.595,1.074,1.909,1.332,0.531,0.974,0.895,�k��,1.4,��
2017/07/17,23:20,1.005,1.598,1.072,1.908,1.330,0.531,0.975,0.898,�k�k��,1.7,��
2017/07/17,23:30,1.007,1.596,1.073,1.910,1.333,0.532,0.978,0.896,�k�k��,1.4,��
2017/07/17,23:40,1.005,1.597,1.072,1.912,1.335,0.533,0.977,0.896,�k,1.7,��
2017/07/17,23:50,1.004,1.596,1.073,1.910,1.334,0.533,0.978,0.897,�k,2.0,��
